Location: Unspecified
(52.2119°N, 0.0000°E)
Time: 14:08:16
(UTC+00:00)

CZ-6A DEB - Visible Passes

Search period start: 04 April 2026 00:00
Search period end: 14 April 2026 00:00
Orbit: 725 x 918 km, 98.7° (Epoch: 28 March)

Date Brightness Start Highest point End Pass type
(mag) Time Alt. Az. Time Alt. Az. Time Alt. Az.
5 Apr ? 04:41:36 10° NE 04:45:03 17° E 04:48:35 10° SE visible
6 Apr ? 04:22:29 10° ENE 04:24:24 12° E 04:26:19 10° ESE visible
11 Apr ? 04:20:44 10° ENE 04:22:42 12° E 04:24:41 10° ESE visible
